JAL525 RJTT-RJCC

Flight info

Callsign JAL525
Flight time 1h 6m
Altitude 39000
Route BRUCE AGRIS Y11 SAMBO Y119 OHMAR Y13 SIRAO Y139 NAVER
Aircraft B77W/H-SDE1E2E3FGHIJ2J3J4J5M1RWXY/LB1D1

Departure

Time 2026-05-05 22:13
Airport Tokyo Haneda International Airport (RJTT)

Arrival

Time 2026-05-05 23:20
Airport New Chitose Airport (RJCC)
Time Latitude Longitude Altitude Speed Heading
2026-05-05 21:51 35.54719 139.78395 35 ft 0 kts 60°
2026-05-05 22:00 35.54717 139.78392 35 ft 2 kts 60°
2026-05-05 22:01 35.54709 139.78375 35 ft 2 kts 60°
2026-05-05 22:01 35.54702 139.78360 35 ft 2 kts 60°
2026-05-05 22:01 35.54694 139.78343 35 ft 2 kts 60°
2026-05-05 22:01 35.54687 139.78328 35 ft 2 kts 60°
2026-05-05 22:02 35.54679 139.78311 35 ft 2 kts 60°
2026-05-05 22:02 35.54671 139.78296 35 ft 2 kts 70°
2026-05-05 22:02 35.54668 139.78278 35 ft 2 kts 88°
2026-05-05 22:02 35.54670 139.78259 35 ft 2 kts 103°
2026-05-05 22:03 35.54674 139.78241 35 ft 2 kts 118°
2026-05-05 22:03 35.54682 139.78226 35 ft 2 kts 133°
2026-05-05 22:03 35.54694 139.78214 35 ft 1 kts 148°
2026-05-05 22:03 35.54698 139.78210 35 ft 0 kts 151°
2026-05-05 22:05 35.54661 139.78236 35 ft 13 kts 150°
2026-05-05 22:06 35.54542 139.78322 35 ft 22 kts 149°
2026-05-05 22:06 35.54406 139.78420 35 ft 21 kts 150°
2026-05-05 22:06 35.54281 139.78508 35 ft 19 kts 150°
2026-05-05 22:06 35.54165 139.78590 35 ft 18 kts 150°
2026-05-05 22:07 35.54055 139.78668 35 ft 17 kts 150°
2026-05-05 22:07 35.53933 139.78754 35 ft 22 kts 150°
2026-05-05 22:07 35.53786 139.78857 35 ft 24 kts 150°
2026-05-05 22:07 35.53644 139.78958 35 ft 22 kts 150°
2026-05-05 22:08 35.53511 139.79051 35 ft 20 kts 149°
2026-05-05 22:08 35.53395 139.79147 35 ft 18 kts 124°
2026-05-05 22:08 35.53393 139.79295 35 ft 17 kts 62°
2026-05-05 22:08 35.53461 139.79443 35 ft 23 kts 60°
2026-05-05 22:09 35.53547 139.79622 35 ft 23 kts 59°
2026-05-05 22:09 35.53628 139.79794 35 ft 22 kts 60°
2026-05-05 22:09 35.53701 139.79959 35 ft 20 kts 76°
2026-05-05 22:09 35.53626 139.80083 35 ft 18 kts 150°
2026-05-05 22:10 35.53493 139.80174 35 ft 22 kts 150°
2026-05-05 22:10 35.53357 139.80269 35 ft 21 kts 151°
2026-05-05 22:10 35.53233 139.80354 35 ft 19 kts 149°
2026-05-05 22:10 35.53116 139.80438 35 ft 18 kts 150°
2026-05-05 22:11 35.52996 139.80521 35 ft 21 kts 150°
2026-05-05 22:11 35.52888 139.80571 35 ft 14 kts 194°
2026-05-05 22:11 35.52793 139.80487 35 ft 22 kts 221°
2026-05-05 22:11 35.52671 139.80353 35 ft 22 kts 222°
2026-05-05 22:12 35.52564 139.80232 35 ft 15 kts 211°
2026-05-05 22:12 35.52478 139.80257 35 ft 13 kts 137°
2026-05-05 22:12 35.52431 139.80337 35 ft 9 kts 89°
2026-05-05 22:12 35.52483 139.80438 35 ft 25 kts 45°
2026-05-05 22:13 35.52817 139.80817 35 ft 104 kts 44°
2026-05-05 22:13 35.53532 139.81618 57 ft 168 kts 43°
2026-05-05 22:13 35.54413 139.82651 725 ft 174 kts 49°
2026-05-05 22:13 35.55213 139.83769 1505 ft 178 kts 53°
2026-05-05 22:14 35.56053 139.84993 1956 ft 194 kts 53°
2026-05-05 22:14 35.56949 139.86351 2418 ft 212 kts 55°
2026-05-05 22:14 35.57899 139.87807 2943 ft 227 kts 54°
2026-05-05 22:14 35.58936 139.89412 3489 ft 243 kts 54°
2026-05-05 22:15 35.60024 139.91104 4060 ft 259 kts 54°
2026-05-05 22:15 35.61178 139.92892 4686 ft 272 kts 53°
2026-05-05 22:15 35.62386 139.94745 5469 ft 279 kts 53°
2026-05-05 22:15 35.63682 139.96561 6234 ft 286 kts 41°
2026-05-05 22:16 35.65472 139.97661 7018 ft 291 kts 14°
2026-05-05 22:16 35.67462 139.98126 7862 ft 293 kts
2026-05-05 22:16 35.69530 139.97983 8604 ft 298 kts 346°
2026-05-05 22:16 35.71507 139.97214 9332 ft 302 kts 340°
2026-05-05 22:17 35.73503 139.96309 10168 ft 304 kts 339°
2026-05-05 22:17 35.75538 139.95384 10681 ft 318 kts 339°
2026-05-05 22:17 35.77701 139.94411 11082 ft 337 kts 340°
2026-05-05 22:17 35.79947 139.93404 11545 ft 354 kts 339°
2026-05-05 22:18 35.82337 139.92334 12009 ft 371 kts 339°
2026-05-05 22:18 35.84846 139.91211 12573 ft 387 kts 339°
2026-05-05 22:18 35.87441 139.90047 13219 ft 401 kts 339°
2026-05-05 22:18 35.90097 139.88856 14176 ft 406 kts 339°
2026-05-05 22:19 35.92767 139.87659 14929 ft 408 kts 339°
2026-05-05 22:19 35.95480 139.86450 15213 ft 414 kts 341°
2026-05-05 22:19 35.98312 139.85640 15236 ft 413 kts 352°
2026-05-05 22:19 36.01207 139.85496 15240 ft 414 kts
2026-05-05 22:20 36.04139 139.86081 15694 ft 432 kts 16°
2026-05-05 22:20 36.06935 139.87390 17055 ft 428 kts 24°
2026-05-05 22:20 36.09631 139.88910 18397 ft 425 kts 24°
2026-05-05 22:20 36.12388 139.90492 19238 ft 434 kts 24°
2026-05-05 22:21 36.15199 139.92113 19832 ft 449 kts 23°
2026-05-05 22:21 36.18117 139.93607 20595 ft 455 kts 15°
2026-05-05 22:21 36.21215 139.94507 21424 ft 457 kts
2026-05-05 22:21 36.24406 139.94786 22154 ft 459 kts 354°
2026-05-05 22:22 36.27631 139.94713 22978 ft 463 kts 353°
2026-05-05 22:22 36.30882 139.94608 23835 ft 468 kts 352°
2026-05-05 22:22 36.34179 139.94504 24682 ft 472 kts 351°
2026-05-05 22:22 36.37545 139.94397 25445 ft 478 kts 350°
2026-05-05 22:23 36.40900 139.94295 26201 ft 484 kts 349°
2026-05-05 22:23 36.44311 139.94243 26950 ft 493 kts 352°
2026-05-05 22:23 36.47772 139.94391 27681 ft 499 kts 352°
2026-05-05 22:23 36.51292 139.94563 28336 ft 506 kts 352°
2026-05-05 22:24 36.54857 139.94734 28959 ft 513 kts 351°
2026-05-05 22:24 36.58501 139.94902 29561 ft 519 kts 351°
2026-05-05 22:24 36.62155 139.95070 30336 ft 522 kts 350°
2026-05-05 22:24 36.65793 139.95238 31325 ft 519 kts 350°
2026-05-05 22:25 36.69386 139.95410 32694 ft 505 kts 349°
2026-05-05 22:25 36.72850 139.95573 33884 ft 495 kts 348°
2026-05-05 22:25 36.76285 139.95728 34853 ft 489 kts 347°
2026-05-05 22:25 36.79701 139.95872 35447 ft 490 kts 348°
2026-05-05 22:26 36.83159 139.96016 35849 ft 494 kts 348°
2026-05-05 22:26 36.86625 139.96197 36436 ft 499 kts 352°
2026-05-05 22:26 36.90125 139.96849 37087 ft 507 kts 358°
2026-05-05 22:26 36.93630 139.97729 37230 ft 510 kts 359°
2026-05-05 22:27 36.97140 139.98637 37241 ft 511 kts 359°
2026-05-05 22:27 37.04299 140.00490 37239 ft 513 kts 359°
2026-05-05 22:28 37.11469 140.02339 37236 ft 526 kts 359°
2026-05-05 22:28 37.18860 140.04245 37227 ft 542 kts
2026-05-05 22:29 37.26398 140.06203 37226 ft 546 kts
2026-05-05 22:29 37.33911 140.08157 37221 ft 546 kts
2026-05-05 22:30 37.41442 140.10121 37226 ft 545 kts
2026-05-05 22:30 37.48897 140.12065 37224 ft 545 kts
2026-05-05 22:31 37.56355 140.14014 37219 ft 544 kts
2026-05-05 22:31 37.63834 140.15970 37216 ft 545 kts
2026-05-05 22:32 37.71303 140.17925 37237 ft 545 kts
2026-05-05 22:32 37.78777 140.19887 37256 ft 544 kts
2026-05-05 22:33 37.86285 140.21860 37233 ft 545 kts
2026-05-05 22:33 37.93802 140.23837 37214 ft 546 kts
2026-05-05 22:34 38.01302 140.25818 37209 ft 546 kts
2026-05-05 22:34 38.08739 140.27786 37208 ft 544 kts
2026-05-05 22:35 38.16260 140.29779 37204 ft 544 kts
2026-05-05 22:35 38.23689 140.31752 37203 ft 543 kts
2026-05-05 22:36 38.31110 140.33728 37205 ft 542 kts
2026-05-05 22:36 38.38589 140.35722 37205 ft 542 kts
2026-05-05 22:37 38.45945 140.37985 37210 ft 546 kts
2026-05-05 22:37 38.53371 140.40404 37032 ft 543 kts
2026-05-05 22:37 38.57012 140.41586 37193 ft 542 kts
2026-05-05 22:38 38.60709 140.42784 37207 ft 544 kts
2026-05-05 22:38 38.68127 140.45186 37210 ft 544 kts
2026-05-05 22:39 38.75505 140.47577 37199 ft 543 kts
2026-05-05 22:39 38.82886 140.49971 37198 ft 541 kts
2026-05-05 22:40 38.90295 140.52376 37209 ft 543 kts
2026-05-05 22:40 38.97652 140.54770 37211 ft 541 kts
2026-05-05 22:41 39.04950 140.57150 37207 ft 539 kts
2026-05-05 22:41 39.12284 140.59555 37199 ft 539 kts
2026-05-05 22:42 39.19592 140.61955 37191 ft 536 kts
2026-05-05 22:42 39.26938 140.64371 37189 ft 539 kts
2026-05-05 22:43 39.34247 140.66780 37191 ft 539 kts
2026-05-05 22:43 39.41591 140.69208 37165 ft 538 kts
2026-05-05 22:44 39.48936 140.71642 37177 ft 538 kts
2026-05-05 22:44 39.56218 140.74059 37161 ft 537 kts
2026-05-05 22:45 39.63527 140.76488 37161 ft 538 kts
2026-05-05 22:45 39.70787 140.78909 37165 ft 536 kts
2026-05-05 22:46 39.78086 140.81348 37168 ft 535 kts
2026-05-05 22:46 39.85392 140.83792 37162 ft 535 kts
2026-05-05 22:47 39.92650 140.86227 37155 ft 534 kts
2026-05-05 22:47 39.99927 140.88676 37154 ft 533 kts
2026-05-05 22:48 40.07143 140.91107 37138 ft 533 kts
2026-05-05 22:48 40.14370 140.93549 37151 ft 532 kts
2026-05-05 22:49 40.21651 140.95117 37135 ft 519 kts 356°
2026-05-05 22:49 40.28937 140.95384 37122 ft 517 kts 355°
2026-05-05 22:50 40.36146 140.95615 37114 ft 515 kts 355°
2026-05-05 22:50 40.43410 140.95851 37109 ft 516 kts 355°
2026-05-05 22:51 40.50650 140.96086 37133 ft 519 kts 355°
2026-05-05 22:51 40.57898 140.96326 37099 ft 514 kts 355°
2026-05-05 22:52 40.65090 140.96564 37101 ft 513 kts 355°
2026-05-05 22:52 40.72255 140.96802 37115 ft 512 kts 355°
2026-05-05 22:53 40.79431 140.97040 37095 ft 511 kts 356°
2026-05-05 22:53 40.86612 140.97279 37075 ft 510 kts 356°
2026-05-05 22:54 40.93806 140.97517 37080 ft 513 kts 356°
2026-05-05 22:54 41.00972 140.97759 37091 ft 512 kts 356°
2026-05-05 22:55 41.08183 140.98001 37094 ft 510 kts 356°
2026-05-05 22:55 41.15344 140.98241 37078 ft 511 kts 356°
2026-05-05 22:56 41.22476 140.98482 37080 ft 508 kts 356°
2026-05-05 22:56 41.29619 140.98932 37051 ft 513 kts
2026-05-05 22:57 41.36603 141.01526 37068 ft 524 kts 15°
2026-05-05 22:57 41.43543 141.04944 37061 ft 524 kts 15°
2026-05-05 22:58 41.50362 141.08321 36875 ft 512 kts 15°
2026-05-05 22:58 41.53704 141.09975 36107 ft 514 kts 15°
2026-05-05 22:58 41.57098 141.11652 35130 ft 521 kts 16°
2026-05-05 22:58 41.60525 141.13348 34034 ft 526 kts 16°
2026-05-05 22:59 41.63980 141.15062 32952 ft 527 kts 17°
2026-05-05 22:59 41.67421 141.16772 32112 ft 519 kts 17°
2026-05-05 22:59 41.70821 141.18474 31055 ft 514 kts 17°
2026-05-05 22:59 41.74191 141.20178 30348 ft 513 kts 17°
2026-05-05 23:00 41.80877 141.23569 29177 ft 505 kts 17°
2026-05-05 23:00 41.84138 141.25224 28587 ft 502 kts 17°
2026-05-05 23:00 41.87415 141.26889 27976 ft 499 kts 17°
2026-05-05 23:01 41.90671 141.28545 27371 ft 496 kts 17°
2026-05-05 23:01 41.93877 141.30284 26751 ft 495 kts 21°
2026-05-05 23:01 41.96890 141.32594 26132 ft 497 kts 31°
2026-05-05 23:01 41.99613 141.35484 25503 ft 499 kts 39°
2026-05-05 23:02 42.02195 141.38727 24868 ft 498 kts 40°
2026-05-05 23:02 42.04704 141.41940 24232 ft 497 kts 40°
2026-05-05 23:02 42.07206 141.45152 23596 ft 495 kts 40°
2026-05-05 23:02 42.09748 141.48421 22949 ft 494 kts 40°
2026-05-05 23:03 42.12283 141.51509 22296 ft 490 kts 34°
2026-05-05 23:03 42.15116 141.54105 21525 ft 480 kts 26°
2026-05-05 23:03 42.17991 141.56280 20931 ft 463 kts 24°
2026-05-05 23:03 42.20802 141.58371 20360 ft 447 kts 24°
2026-05-05 23:04 42.23490 141.60370 19759 ft 434 kts 24°
2026-05-05 23:04 42.26110 141.62318 19228 ft 425 kts 24°
2026-05-05 23:04 42.28739 141.64275 18634 ft 427 kts 24°
2026-05-05 23:04 42.31373 141.66237 17962 ft 431 kts 25°
2026-05-05 23:05 42.34011 141.68204 17316 ft 433 kts 25°
2026-05-05 23:05 42.36689 141.70206 16695 ft 434 kts 25°
2026-05-05 23:05 42.39334 141.72185 16068 ft 435 kts 25°
2026-05-05 23:05 42.42031 141.74205 15425 ft 435 kts 25°
2026-05-05 23:06 42.44684 141.76195 14800 ft 436 kts 25°
2026-05-05 23:06 42.47354 141.78201 14375 ft 430 kts 25°
2026-05-05 23:06 42.49958 141.80162 13860 ft 423 kts 25°
2026-05-05 23:06 42.52556 141.82115 13012 ft 425 kts 25°
2026-05-05 23:07 42.55161 141.84030 12493 ft 415 kts 21°
2026-05-05 23:07 42.57828 141.85417 11874 ft 394 kts
2026-05-05 23:07 42.60445 141.86081 11167 ft 374 kts 358°
2026-05-05 23:07 42.63031 141.86105 10748 ft 361 kts 351°
2026-05-05 23:08 42.65506 141.85977 10638 ft 345 kts 351°
2026-05-05 23:08 42.67876 141.85837 10526 ft 331 kts 350°
2026-05-05 23:08 42.70188 141.85669 10382 ft 318 kts 349°
2026-05-05 23:08 42.72356 141.85483 10237 ft 306 kts 348°
2026-05-05 23:09 42.74485 141.85286 10104 ft 295 kts 347°
2026-05-05 23:09 42.76522 141.85091 9847 ft 290 kts 347°
2026-05-05 23:09 42.78549 141.84891 9451 ft 291 kts 347°
2026-05-05 23:09 42.80608 141.84691 9062 ft 291 kts 348°
2026-05-05 23:10 42.82611 141.84383 8687 ft 285 kts 341°
2026-05-05 23:10 42.84543 141.83809 8347 ft 281 kts 339°
2026-05-05 23:10 42.86443 141.83199 7949 ft 273 kts 339°
2026-05-05 23:10 42.88297 141.82610 7712 ft 265 kts 339°
2026-05-05 23:11 42.90098 141.82033 7374 ft 265 kts 339°
2026-05-05 23:11 42.91910 141.81456 7034 ft 265 kts 339°
2026-05-05 23:11 42.93715 141.80885 6703 ft 264 kts 338°
2026-05-05 23:11 42.95519 141.80313 6379 ft 263 kts 338°
2026-05-05 23:12 42.97315 141.79742 6057 ft 262 kts 339°
2026-05-05 23:12 42.99098 141.79176 5746 ft 261 kts 338°
2026-05-05 23:12 43.00735 141.78195 5430 ft 247 kts 319°
2026-05-05 23:12 43.02103 141.76794 5145 ft 243 kts 314°
2026-05-05 23:13 43.03240 141.75157 4889 ft 228 kts 292°
2026-05-05 23:13 43.03639 141.73149 4823 ft 211 kts 267°
2026-05-05 23:13 43.03344 141.71236 4764 ft 200 kts 245°
2026-05-05 23:13 43.02633 141.69661 4703 ft 188 kts 237°
2026-05-05 23:14 43.01889 141.68237 4633 ft 177 kts 234°
2026-05-05 23:14 43.01137 141.66943 4569 ft 169 kts 233°
2026-05-05 23:14 43.00306 141.65764 4483 ft 170 kts 221°
2026-05-05 23:14 42.99192 141.65131 4210 ft 180 kts 188°
2026-05-05 23:15 42.97935 141.65389 3955 ft 183 kts 175°
2026-05-05 23:15 42.96682 141.65697 3719 ft 180 kts 178°
2026-05-05 23:15 42.95442 141.65924 3473 ft 176 kts 179°
2026-05-05 23:15 42.94222 141.66126 3238 ft 174 kts 179°
2026-05-05 23:16 42.93014 141.66332 3002 ft 172 kts 178°
2026-05-05 23:16 42.91805 141.66539 2758 ft 172 kts 178°
2026-05-05 23:16 42.90610 141.66746 2520 ft 171 kts 177°
2026-05-05 23:16 42.89430 141.66956 2277 ft 166 kts 176°
2026-05-05 23:17 42.88329 141.67149 2042 ft 151 kts 177°
2026-05-05 23:17 42.87306 141.67326 1837 ft 138 kts 176°
2026-05-05 23:17 42.86374 141.67490 1657 ft 133 kts 176°
2026-05-05 23:17 42.85449 141.67653 1472 ft 132 kts 176°
2026-05-05 23:18 42.84532 141.67813 1273 ft 134 kts 174°
2026-05-05 23:18 42.83602 141.67978 1087 ft 133 kts 174°
2026-05-05 23:18 42.82668 141.68138 904 ft 135 kts 173°
2026-05-05 23:18 42.81718 141.68315 709 ft 138 kts 172°
2026-05-05 23:19 42.80756 141.68475 524 ft 138 kts 172°
2026-05-05 23:19 42.79797 141.68648 339 ft 138 kts 172°
2026-05-05 23:19 42.78852 141.68805 141 ft 137 kts 171°
2026-05-05 23:19 42.77974 141.68959 98 ft 107 kts 171°
2026-05-05 23:20 42.77387 141.69066 97 ft 62 kts 173°
2026-05-05 23:20 42.77122 141.69112 97 ft 19 kts 182°
2026-05-05 23:20 42.77060 141.68988 97 ft 16 kts 267°
2026-05-05 23:20 42.77107 141.68898 97 ft 13 kts 336°
2026-05-05 23:21 42.77204 141.68872 97 ft 16 kts 351°
2026-05-05 23:21 42.77372 141.68842 97 ft 26 kts 353°
2026-05-05 23:21 42.77551 141.68811 97 ft 25 kts 353°
2026-05-05 23:21 42.77724 141.68780 97 ft 24 kts 351°
2026-05-05 23:22 42.77887 141.68750 97 ft 23 kts 353°
2026-05-05 23:22 42.78023 141.68730 97 ft 23 kts 355°
2026-05-05 23:22 42.78193 141.68701 97 ft 22 kts 352°
2026-05-05 23:22 42.78340 141.68666 98 ft 21 kts 336°
2026-05-05 23:23 42.78417 141.68510 98 ft 20 kts 289°
2026-05-05 23:23 42.78489 141.68353 98 ft 19 kts 311°
2026-05-05 23:23 42.78558 141.68230 98 ft 2 kts 304°
2026-05-05 23:23 42.78560 141.68225 98 ft 0 kts 304°